FlightSource - Aviation Photo Database

World Wide Airport Lookup


Search by ICAO
Or
Search by City

FlightSource.ca - Aviation Photo Database - Litchfield Municipal Airport Information
Airport Identification
Name: Litchfield Municipal Airport
ICAO: K3LF
IATA:
Airport Location
City: Litchfield
Region: IL
Country: United States
Continent: North America
Latitude: 39.1625
Longitude: -89.6746
Airport Information
Type: Small Airport
Elevation: 690 Feet ASL
Flight Status: K3LF
More Info: K3LF
Airport Weather    
Metar: K3LF 130515Z AUTO 20005KT 10SM CLR M07/M12 A3002 RMK AO2 T10671121
TAF:


Advertisement